Time,TemperatureF,DewpointF,PressureIn,WindDirection,WindDirectionDegrees,WindSpeedMPH,WindSpeedGustMPH,Humidity,HourlyPrecipIn,Conditions,Clouds,dailyrainin,SolarRadiationWatts/m^2,SoftwareType,DateUTC
2013-01-27 00:03:00,43.8,39.6,30.04,ESE,102,5.8,5.8,85,0.00,RA,,0.00,0.0,WeatherDisplay:10.37,2013-01-27 06:03:00,
2013-01-27 00:08:00,43.8,39.6,30.02,SE,127,6.9,6.9,85,0.00,CLR,,0.00,0.0,WeatherDisplay:10.37,2013-01-27 06:08:00,
2013-01-27 00:13:00,43.7,39.8,30.02,SE,134,6.9,6.9,86,0.00,CLR,,0.00,0.0,WeatherDisplay:10.37,2013-01-27 06:13:00,
2013-01-27 00:18:00,43.7,39.8,30.00,East,92,5.8,5.8,86,0.00,CLR,,0.00,0.0,WeatherDisplay:10.37,2013-01-27 06:18:00,
2013-01-27 00:23:00,43.7,39.8,29.99,ESE,113,9.2,9.2,86,0.00,CLR,,0.00,0.0,WeatherDisplay:10.37,2013-01-27 06:23:00,
2013-01-27 00:28:00,43.7,39.8,29.99,ESE,119,9.2,9.2,86,0.00,CLR,,0.00,0.0,WeatherDisplay:10.37,2013-01-27 06:28:00,
2013-01-27 00:33:00,43.6,39.7,30.00,SE,138,6.9,6.9,86,0.00,CLR,,0.00,0.0,WeatherDisplay:10.37,2013-01-27 06:33:00,
2013-01-27 00:38:00,43.5,39.6,29.98,SE,132,7.0,7.0,86,0.00,CLR,,0.00,0.0,WeatherDisplay:10.37,2013-01-27 06:38:00,
2013-01-27 00:43:00,43.4,39.2,29.97,ESE,110,11.5,11.5,85,0.00,CLR,,0.00,0.0,WeatherDisplay:10.37,2013-01-27 06:43:00,
2013-01-27 00:48:00,43.4,39.2,29.98,ESE,111,6.9,6.9,85,0.00,CLR,,0.00,0.0,WeatherDisplay:10.37,2013-01-27 06:48:00,
2013-01-27 00:53:00,43.3,39.1,29.98,ESE,121,11.5,11.5,85,0.00,CLR,,0.00,0.0,WeatherDisplay:10.37,2013-01-27 06:53:00,
2013-01-27 00:58:00,43.3,39.4,29.99,SE,136,11.5,11.5,86,0.00,CLR,,0.00,0.0,WeatherDisplay:10.37,2013-01-27 06:58:00,
2013-01-27 01:03:00,43.4,39.5,30.01,SE,140,11.5,11.5,86,0.00,CLR,,0.00,0.0,WeatherDisplay:10.37,2013-01-27 07:03:00,
2013-01-27 01:08:00,43.4,39.2,30.01,SE,139,6.9,6.9,85,0.00,CLR,,0.00,0.0,WeatherDisplay:10.37,2013-01-27 07:08:00,
2013-01-27 01:13:00,43.4,39.5,30.01,ESE,103,10.4,10.4,86,0.00,CLR,,0.00,0.0,WeatherDisplay:10.37,2013-01-27 07:13:00,
2013-01-27 01:18:00,43.4,39.5,30.01,SSE,163,6.9,6.9,86,0.00,CLR,,0.00,0.0,WeatherDisplay:10.37,2013-01-27 07:18:00,
2013-01-27 01:23:00,43.4,39.5,30.01,SSE,151,6.9,6.9,86,0.00,CLR,,0.00,0.0,WeatherDisplay:10.37,2013-01-27 07:23:00,
2013-01-27 01:28:00,43.4,39.5,30.01,South,171,6.9,6.9,86,0.00,CLR,,0.00,0.0,WeatherDisplay:10.37,2013-01-27 07:28:00,
2013-01-27 01:33:00,43.4,39.8,30.00,ESE,116,6.9,6.9,87,0.00,CLR,,0.00,0.0,WeatherDisplay:10.37,2013-01-27 07:33:00,
2013-01-27 01:38:00,43.4,39.8,30.01,SSE,165,11.5,11.5,87,0.00,CLR,,0.00,0.0,WeatherDisplay:10.37,2013-01-27 07:38:00,
2013-01-27 01:43:00,43.4,40.1,30.00,SE,128,11.5,11.5,88,0.00,CLR,,0.00,0.0,WeatherDisplay:10.37,2013-01-27 07:43:00,
2013-01-27 01:48:00,43.4,40.1,30.00,SSW,204,9.2,9.2,88,0.00,CLR,,0.00,0.0,WeatherDisplay:10.37,2013-01-27 07:48:00,
2013-01-27 01:53:00,43.5,40.2,30.00,South,170,9.2,9.2,88,0.00,CLR,,0.00,0.0,WeatherDisplay:10.37,2013-01-27 07:53:00,
2013-01-27 01:58:00,43.5,40.2,30.00,South,185,10.4,10.4,88,0.00,CLR,,0.00,0.0,WeatherDisplay:10.37,2013-01-27 07:58:00,
2013-01-27 02:03:00,43.5,40.5,29.99,SE,140,9.0,9.0,89,0.00,CLR,,0.00,0.0,WeatherDisplay:10.37,2013-01-27 08:03:00,
2013-01-27 02:08:00,43.5,40.5,29.99,SE,144,11.5,11.5,89,0.00,CLR,,0.00,0.0,WeatherDisplay:10.37,2013-01-27 08:08:00,
2013-01-27 02:13:00,43.5,40.5,30.00,South,171,11.5,11.5,89,0.00,CLR,,0.00,0.0,WeatherDisplay:10.37,2013-01-27 08:13:00,
2013-01-27 02:18:00,43.5,40.5,29.99,SE,128,4.6,4.6,89,0.00,CLR,,0.00,0.0,WeatherDisplay:10.37,2013-01-27 08:18:00,
2013-01-27 02:23:00,43.4,40.7,29.99,SSE,166,6.0,6.0,90,0.00,CLR,,0.00,0.0,WeatherDisplay:10.37,2013-01-27 08:23:00,
2013-01-27 02:28:00,43.4,40.7,29.99,SSE,150,3.5,3.5,90,0.00,CLR,,0.00,0.0,WeatherDisplay:10.37,2013-01-27 08:28:00,
2013-01-27 02:33:00,43.4,40.7,29.99,SE,138,8.1,8.1,90,0.00,CLR,,0.00,0.0,WeatherDisplay:10.37,2013-01-27 08:33:00,
2013-01-27 02:38:00,43.4,40.7,29.99,SE,138,9.2,9.2,90,0.00,CLR,,0.00,0.0,WeatherDisplay:10.37,2013-01-27 08:38:00,
2013-01-27 02:43:00,43.4,40.7,29.98,SSE,161,3.5,3.5,90,0.00,CLR,,0.00,0.0,WeatherDisplay:10.37,2013-01-27 08:43:00,
2013-01-27 02:48:00,43.4,40.9,29.98,ESE,117,8.0,8.0,91,0.00,CLR,,0.00,0.0,WeatherDisplay:10.37,2013-01-27 08:48:00,
2013-01-27 02:53:00,43.4,40.9,29.98,SE,138,10.4,10.4,91,0.00,CLR,,0.00,0.0,WeatherDisplay:10.37,2013-01-27 08:53:00,
2013-01-27 02:58:00,43.4,40.9,29.98,SSE,159,8.1,8.1,91,0.00,CLR,,0.00,0.0,WeatherDisplay:10.37,2013-01-27 08:58:00,
2013-01-27 03:03:00,43.4,40.9,29.97,South,173,5.0,5.0,91,0.00,CLR,,0.00,0.0,WeatherDisplay:10.37,2013-01-27 09:03:00,
2013-01-27 03:08:00,43.4,40.9,29.97,SE,140,6.9,6.9,91,0.00,CLR,,0.00,0.0,WeatherDisplay:10.37,2013-01-27 09:08:00,
2013-01-27 03:13:00,43.4,41.2,29.97,SE,142,4.6,4.6,92,0.00,CLR,,0.00,0.0,WeatherDisplay:10.37,2013-01-27 09:13:00,
2013-01-27 03:18:00,43.5,41.3,29.95,SE,132,9.2,9.2,92,0.00,CLR,,0.00,0.0,WeatherDisplay:10.37,2013-01-27 09:18:00,
2013-01-27 03:23:00,43.5,41.3,29.95,East,97,10.4,10.4,92,0.00,CLR,,0.00,0.0,WeatherDisplay:10.37,2013-01-27 09:23:00,
2013-01-27 03:28:00,43.5,41.6,29.94,ESE,111,10.0,10.0,93,0.00,CLR,,0.00,0.0,WeatherDisplay:10.37,2013-01-27 09:28:00,
2013-01-27 03:33:00,43.6,41.7,29.94,ESE,122,6.9,6.9,93,0.00,CLR,,0.00,0.0,WeatherDisplay:10.37,2013-01-27 09:33:00,
2013-01-27 03:38:00,43.6,41.7,29.94,ESE,115,8.1,8.1,93,0.00,CLR,,0.00,0.0,WeatherDisplay:10.37,2013-01-27 09:38:00,
2013-01-27 03:43:00,43.6,41.7,29.95,SSE,161,11.5,11.5,93,0.00,CLR,,0.00,0.0,WeatherDisplay:10.37,2013-01-27 09:43:00,
2013-01-27 03:48:00,43.6,41.7,29.94,South,175,11.5,11.5,93,0.00,CLR,,0.00,0.0,WeatherDisplay:10.37,2013-01-27 09:48:00,
2013-01-27 03:53:00,43.6,42.0,29.94,South,169,6.9,6.9,94,0.00,CLR,,0.00,0.0,WeatherDisplay:10.37,2013-01-27 09:53:00,
2013-01-27 03:58:00,43.5,41.9,29.93,SE,138,6.9,6.9,94,0.00,CLR,,0.00,0.0,WeatherDisplay:10.37,2013-01-27 09:58:00,
2013-01-27 04:03:00,43.6,42.0,29.94,South,173,12.7,12.7,94,0.00,CLR,,0.00,0.0,WeatherDisplay:10.37,2013-01-27 10:03:00,
2013-01-27 04:08:00,43.6,42.0,29.94,SE,125,13.8,13.8,94,0.00,CLR,,0.00,0.0,WeatherDisplay:10.37,2013-01-27 10:08:00,
2013-01-27 04:13:00,43.6,42.3,29.93,South,178,9.2,9.2,95,0.00,CLR,,0.00,0.0,WeatherDisplay:10.37,2013-01-27 10:13:00,
2013-01-27 04:18:00,43.7,42.4,29.92,SE,143,13.8,13.8,95,0.00,CLR,,0.00,0.0,WeatherDisplay:10.37,2013-01-27 10:18:00,
2013-01-27 04:23:00,43.8,42.5,29.91,SE,139,13.8,13.8,95,0.00,CLR,,0.00,0.0,WeatherDisplay:10.37,2013-01-27 10:23:00,
2013-01-27 04:28:00,43.8,42.5,29.91,South,175,5.8,5.8,95,0.00,CLR,,0.00,0.0,WeatherDisplay:10.37,2013-01-27 10:28:00,
2013-01-27 04:33:00,43.8,42.5,29.90,South,171,13.8,13.8,95,0.00,CLR,,0.00,0.0,WeatherDisplay:10.37,2013-01-27 10:33:00,
2013-01-27 04:38:00,43.8,42.7,29.91,ESE,121,17.3,17.3,96,0.00,CLR,,0.00,0.0,WeatherDisplay:10.37,2013-01-27 10:38:00,
2013-01-27 04:43:00,43.8,42.7,29.91,SSE,153,8.1,8.1,96,0.00,CLR,,0.00,0.0,WeatherDisplay:10.37,2013-01-27 10:43:00,
2013-01-27 04:48:00,43.8,42.7,29.90,SE,134,8.1,8.1,96,0.00,CLR,,0.00,0.0,WeatherDisplay:10.37,2013-01-27 10:48:00,
2013-01-27 04:53:00,43.8,42.7,29.90,SE,146,13.8,13.8,96,0.00,CLR,,0.00,0.0,WeatherDisplay:10.37,2013-01-27 10:53:00,
2013-01-27 04:58:00,43.8,42.7,29.91,SSE,155,11.5,11.5,96,0.00,CLR,,0.00,0.0,WeatherDisplay:10.37,2013-01-27 10:58:00,
2013-01-27 05:03:00,43.9,42.8,29.91,South,171,13.8,13.8,96,0.00,CLR,,0.00,0.0,WeatherDisplay:10.37,2013-01-27 11:03:00,
2013-01-27 05:08:00,43.9,42.8,29.90,ESE,106,21.9,21.9,96,0.00,CLR,,0.00,0.0,WeatherDisplay:10.37,2013-01-27 11:08:00,
2013-01-27 05:13:00,44.0,43.2,29.89,SE,126,11.5,11.5,97,0.00,CLR,,0.00,0.0,WeatherDisplay:10.37,2013-01-27 11:13:00,
2013-01-27 05:18:00,44.0,43.2,29.89,SSE,158,12.7,12.7,97,0.00,CLR,,0.00,0.0,WeatherDisplay:10.37,2013-01-27 11:18:00,
2013-01-27 05:23:00,44.0,42.9,29.89,SE,136,9.2,9.2,96,0.00,CLR,,0.00,0.0,WeatherDisplay:10.37,2013-01-27 11:23:00,
2013-01-27 05:28:00,44.1,43.3,29.89,SSE,151,11.5,11.5,97,0.00,CLR,,0.00,0.0,WeatherDisplay:10.37,2013-01-27 11:28:00,
2013-01-27 05:33:00,44.1,43.3,29.88,South,188,12.7,12.7,97,0.00,CLR,,0.00,0.0,WeatherDisplay:10.37,2013-01-27 11:33:00,
2013-01-27 05:38:00,44.2,43.4,29.88,ESE,115,15.0,15.0,97,0.01,RA,,0.01,0.0,WeatherDisplay:10.37,2013-01-27 11:38:00,
2013-01-27 05:43:00,44.2,43.4,29.88,SE,129,11.5,11.5,97,0.01,CLR,,0.01,0.0,WeatherDisplay:10.37,2013-01-27 11:43:00,
2013-01-27 05:48:00,44.2,43.4,29.88,South,190,8.1,8.1,97,0.01,CLR,,0.01,0.0,WeatherDisplay:10.37,2013-01-27 11:48:00,
2013-01-27 05:53:00,44.2,43.4,29.87,South,169,15.0,15.0,97,0.01,CLR,,0.01,0.0,WeatherDisplay:10.37,2013-01-27 11:53:00,
2013-01-27 05:58:00,44.3,43.5,29.88,SSE,159,9.2,9.2,97,0.01,CLR,,0.01,0.0,WeatherDisplay:10.37,2013-01-27 11:58:00,
2013-01-27 06:03:00,44.3,43.5,29.88,South,175,9.2,9.2,97,0.01,CLR,,0.01,0.0,WeatherDisplay:10.37,2013-01-27 12:03:00,
2013-01-27 06:08:00,44.3,43.5,29.88,South,175,10.4,10.4,97,0.01,CLR,,0.01,0.0,WeatherDisplay:10.37,2013-01-27 12:08:00,
2013-01-27 06:13:00,44.4,43.6,29.87,South,177,17.3,17.3,97,0.01,CLR,,0.01,0.0,WeatherDisplay:10.37,2013-01-27 12:13:00,
2013-01-27 06:18:00,44.6,43.8,29.88,South,171,19.6,19.6,97,0.01,CLR,,0.01,0.0,WeatherDisplay:10.37,2013-01-27 12:18:00,
2013-01-27 06:23:00,44.7,43.9,29.87,SSE,148,15.0,15.0,97,0.01,CLR,,0.01,0.0,WeatherDisplay:10.37,2013-01-27 12:23:00,
2013-01-27 06:28:00,44.8,44.0,29.87,SE,125,12.7,12.7,97,0.01,CLR,,0.01,0.0,WeatherDisplay:10.37,2013-01-27 12:28:00,
2013-01-27 06:33:00,44.9,44.1,29.87,SSE,153,11.5,11.5,97,0.01,CLR,,0.01,0.0,WeatherDisplay:10.37,2013-01-27 12:33:00,
2013-01-27 06:38:00,45.1,44.6,29.87,South,178,16.1,16.1,98,0.00,CLR,,0.01,0.0,WeatherDisplay:10.37,2013-01-27 12:38:00,
2013-01-27 06:43:00,45.1,44.6,29.86,ESE,122,16.1,16.1,98,0.00,CLR,,0.01,0.0,WeatherDisplay:10.37,2013-01-27 12:43:00,
2013-01-27 06:48:00,45.2,44.7,29.86,ESE,115,16.1,16.1,98,0.00,CLR,,0.01,0.0,WeatherDisplay:10.37,2013-01-27 12:48:00,
2013-01-27 06:53:00,45.2,44.7,29.86,SE,134,13.8,13.8,98,0.00,CLR,,0.01,0.0,WeatherDisplay:10.37,2013-01-27 12:53:00,
2013-01-27 06:58:00,45.2,44.7,29.87,East,92,11.5,11.5,98,0.00,CLR,,0.01,0.0,WeatherDisplay:10.37,2013-01-27 12:58:00,
2013-01-27 07:03:00,45.2,44.7,29.87,South,183,12.7,12.7,98,0.00,CLR,,0.01,0.0,WeatherDisplay:10.37,2013-01-27 13:03:00,
2013-01-27 07:08:00,45.3,44.8,29.86,SE,136,11.5,11.5,98,0.00,CLR,,0.01,0.0,WeatherDisplay:10.37,2013-01-27 13:08:00,
2013-01-27 07:13:00,45.3,44.8,29.86,SE,140,12.7,12.7,98,0.00,CLR,,0.01,0.0,WeatherDisplay:10.37,2013-01-27 13:13:00,
2013-01-27 07:18:00,45.4,44.9,29.86,ENE,67,12.7,12.7,98,0.00,CLR,,0.01,0.0,WeatherDisplay:10.37,2013-01-27 13:18:00,
2013-01-27 07:23:00,45.4,44.9,29.86,SSE,151,16.1,16.1,98,0.00,CLR,,0.01,0.0,WeatherDisplay:10.37,2013-01-27 13:23:00,
2013-01-27 07:28:00,45.5,45.0,29.86,SSE,153,8.1,8.1,98,0.00,CLR,,0.01,0.0,WeatherDisplay:10.37,2013-01-27 13:28:00,
2013-01-27 07:33:00,45.6,45.1,29.85,SE,126,16.1,16.1,98,0.00,CLR,,0.01,0.0,WeatherDisplay:10.37,2013-01-27 13:33:00,
2013-01-27 07:38:00,45.7,45.2,29.85,SSE,159,11.5,11.5,98,0.00,OVC,,0.01,0.0,WeatherDisplay:10.37,2013-01-27 13:38:00,
2013-01-27 07:43:00,45.9,45.4,29.85,South,172,13.8,13.8,98,0.00,OVC,,0.01,0.0,WeatherDisplay:10.37,2013-01-27 13:43:00,
2013-01-27 07:48:00,46.0,45.5,29.85,SSE,150,13.8,13.8,98,0.00,OVC,,0.01,0.0,WeatherDisplay:10.37,2013-01-27 13:48:00,
2013-01-27 07:53:00,46.1,45.6,29.85,South,175,11.5,11.5,98,0.00,OVC,,0.01,0.0,WeatherDisplay:10.37,2013-01-27 13:53:00,
2013-01-27 07:58:00,46.3,45.8,29.85,South,176,10.4,10.4,98,0.00,OVC,,0.01,0.0,WeatherDisplay:10.37,2013-01-27 13:58:00,
2013-01-27 08:03:00,46.5,46.0,29.85,South,188,17.3,17.3,98,0.00,OVC,,0.01,0.0,WeatherDisplay:10.37,2013-01-27 14:03:00,
2013-01-27 08:08:00,46.7,46.2,29.85,SE,139,9.2,9.2,98,0.00,OVC,,0.01,0.0,WeatherDisplay:10.37,2013-01-27 14:08:00,
2013-01-27 08:13:00,46.8,46.3,29.86,SSE,148,7.0,7.0,98,0.00,OVC,,0.01,0.0,WeatherDisplay:10.37,2013-01-27 14:13:00,
2013-01-27 08:18:00,46.9,46.4,29.85,SSE,152,15.0,15.0,98,0.00,OVC,,0.01,0.0,WeatherDisplay:10.37,2013-01-27 14:18:00,
2013-01-27 08:23:00,46.9,46.4,29.85,SE,145,9.2,9.2,98,0.00,OVC,,0.01,0.0,WeatherDisplay:10.37,2013-01-27 14:23:00,
2013-01-27 08:28:00,46.9,46.4,29.85,South,186,16.1,16.1,98,0.00,OVC,,0.01,0.0,WeatherDisplay:10.37,2013-01-27 14:28:00,
2013-01-27 08:33:00,47.0,46.5,29.84,SE,139,9.2,9.2,98,0.00,OVC,,0.01,0.0,WeatherDisplay:10.37,2013-01-27 14:33:00,
2013-01-27 08:38:00,47.0,46.5,29.85,SSE,151,8.1,8.1,98,0.00,BKN,,0.01,9.0,WeatherDisplay:10.37,2013-01-27 14:38:00,
2013-01-27 08:43:00,47.2,46.7,29.85,South,182,11.5,11.5,98,0.00,BKN,,0.01,11.0,WeatherDisplay:10.37,2013-01-27 14:43:00,
2013-01-27 08:48:00,47.3,47.0,29.84,SE,137,13.8,13.8,99,0.00,BKN,,0.01,12.0,WeatherDisplay:10.37,2013-01-27 14:48:00,
2013-01-27 08:53:00,47.6,47.1,29.84,SSW,194,12.7,12.7,98,0.00,BKN,,0.01,14.0,WeatherDisplay:10.37,2013-01-27 14:53:00,
2013-01-27 08:58:00,47.8,47.5,29.84,SE,140,9.2,9.2,99,0.00,BKN,,0.01,14.0,WeatherDisplay:10.37,2013-01-27 14:58:00,
2013-01-27 09:03:00,47.9,47.6,29.84,SSE,147,15.0,15.0,99,0.00,BKN,,0.01,16.0,WeatherDisplay:10.37,2013-01-27 15:03:00,
2013-01-27 09:08:00,48.1,47.8,29.84,SE,144,15.0,15.0,99,0.00,BKN,,0.01,16.0,WeatherDisplay:10.37,2013-01-27 15:08:00,
2013-01-27 09:13:00,48.2,47.9,29.84,SE,146,15.0,15.0,99,0.00,BKN,,0.01,16.0,WeatherDisplay:10.37,2013-01-27 15:13:00,
2013-01-27 09:18:00,48.4,48.1,29.84,South,182,15.0,15.0,99,0.00,BKN,,0.01,16.0,WeatherDisplay:10.37,2013-01-27 15:18:00,
2013-01-27 09:23:00,48.8,48.5,29.84,South,173,19.6,19.6,99,0.00,BKN,,0.01,21.0,WeatherDisplay:10.37,2013-01-27 15:23:00,
2013-01-27 09:28:00,49.2,48.9,29.83,ESE,108,15.0,15.0,99,0.00,BKN,,0.01,25.0,WeatherDisplay:10.37,2013-01-27 15:28:00,
2013-01-27 09:33:00,49.4,49.1,29.83,South,178,19.6,19.6,99,0.00,BKN,,0.01,25.0,WeatherDisplay:10.37,2013-01-27 15:33:00,
2013-01-27 09:38:00,49.5,49.2,29.83,SSE,158,17.3,17.3,99,0.00,BKN,,0.01,33.0,WeatherDisplay:10.37,2013-01-27 15:38:00,
2013-01-27 09:43:00,49.5,49.2,29.84,SSE,150,12.7,12.7,99,0.00,BKN,,0.01,25.0,WeatherDisplay:10.37,2013-01-27 15:43:00,
2013-01-27 09:48:00,49.5,49.2,29.84,SSE,163,10.0,10.0,99,0.00,BKN,,0.01,25.0,WeatherDisplay:10.37,2013-01-27 15:48:00,
2013-01-27 09:53:00,49.6,49.3,29.83,South,183,19.6,19.6,99,0.00,BKN,,0.01,26.0,WeatherDisplay:10.37,2013-01-27 15:53:00,
2013-01-27 09:58:00,49.6,49.3,29.83,SSE,162,16.1,16.1,99,0.00,BKN,,0.01,33.0,WeatherDisplay:10.37,2013-01-27 15:58:00,
2013-01-27 10:03:00,49.7,49.4,29.83,SE,139,12.7,12.7,99,0.00,BKN,,0.01,32.0,WeatherDisplay:10.37,2013-01-27 16:03:00,
2013-01-27 10:08:00,49.7,49.4,29.83,South,173,16.1,16.1,99,0.00,BKN,,0.01,39.0,WeatherDisplay:10.37,2013-01-27 16:08:00,
2013-01-27 10:13:00,49.8,49.5,29.84,SSE,168,17.3,17.3,99,0.00,BKN,,0.01,37.0,WeatherDisplay:10.37,2013-01-27 16:13:00,
2013-01-27 10:18:00,50.0,49.7,29.84,SSE,168,10.4,10.4,99,0.00,BKN,,0.01,37.0,WeatherDisplay:10.37,2013-01-27 16:18:00,
2013-01-27 10:23:00,50.1,49.8,29.84,SSE,159,16.1,16.1,99,0.00,BKN,,0.01,28.0,WeatherDisplay:10.37,2013-01-27 16:23:00,
2013-01-27 10:28:00,50.1,49.8,29.84,South,176,11.5,11.5,99,0.00,BKN,,0.01,33.0,WeatherDisplay:10.37,2013-01-27 16:28:00,
2013-01-27 10:33:00,50.1,49.8,29.84,South,186,15.0,15.0,99,0.00,BKN,,0.01,28.0,WeatherDisplay:10.37,2013-01-27 16:33:00,
2013-01-27 10:38:00,50.2,49.9,29.84,SSE,157,9.2,9.2,99,0.00,BKN,,0.01,30.0,WeatherDisplay:10.37,2013-01-27 16:38:00,
2013-01-27 10:43:00,50.3,50.0,29.85,SSE,159,10.4,10.4,99,0.00,BKN,,0.01,39.0,WeatherDisplay:10.37,2013-01-27 16:43:00,
2013-01-27 10:48:00,50.5,50.2,29.85,South,184,15.0,15.0,99,0.00,BKN,,0.01,39.0,WeatherDisplay:10.37,2013-01-27 16:48:00,
2013-01-27 10:53:00,50.7,50.4,29.84,South,172,15.0,15.0,99,0.00,BKN,,0.01,35.0,WeatherDisplay:10.37,2013-01-27 16:53:00,
2013-01-27 10:58:00,50.9,50.6,29.84,South,174,13.8,13.8,99,0.00,BKN,,0.01,46.0,WeatherDisplay:10.37,2013-01-27 16:58:00,
2013-01-27 11:03:00,51.0,50.7,29.84,SE,146,16.0,16.0,99,0.00,BKN,,0.01,49.0,WeatherDisplay:10.37,2013-01-27 17:03:00,
2013-01-27 11:08:00,51.1,50.8,29.83,SE,136,19.6,19.6,99,0.00,BKN,,0.01,53.0,WeatherDisplay:10.37,2013-01-27 17:08:00,
2013-01-27 11:13:00,51.2,50.9,29.83,SSW,204,19.6,19.6,99,0.00,BKN,,0.01,51.0,WeatherDisplay:10.37,2013-01-27 17:13:00,
2013-01-27 11:18:00,51.2,50.9,29.83,SE,128,12.7,12.7,99,0.00,BKN,,0.01,47.0,WeatherDisplay:10.37,2013-01-27 17:18:00,
2013-01-27 11:23:00,51.3,50.8,29.83,South,171,11.5,11.5,98,0.00,BKN,,0.01,42.0,WeatherDisplay:10.37,2013-01-27 17:23:00,
2013-01-27 11:28:00,51.3,50.8,29.83,SSE,165,15.0,15.0,98,0.00,BKN,,0.01,42.0,WeatherDisplay:10.37,2013-01-27 17:28:00,
2013-01-27 11:33:00,51.3,51.0,29.83,South,171,4.6,4.6,99,0.00,BKN,,0.01,42.0,WeatherDisplay:10.37,2013-01-27 17:33:00,
2013-01-27 11:38:00,51.4,51.1,29.82,SSE,152,16.1,16.1,99,0.00,BKN,,0.01,44.0,WeatherDisplay:10.37,2013-01-27 17:38:00,
2013-01-27 11:43:00,51.5,51.2,29.82,SSE,164,6.9,6.9,99,0.00,BKN,,0.01,42.0,WeatherDisplay:10.37,2013-01-27 17:43:00,
2013-01-27 11:48:00,51.6,51.3,29.82,SW,224,11.5,11.5,99,0.00,BKN,,0.01,47.0,WeatherDisplay:10.37,2013-01-27 17:48:00,
2013-01-27 11:53:00,51.7,51.4,29.82,South,169,11.5,11.5,99,0.00,BKN,,0.01,51.0,WeatherDisplay:10.37,2013-01-27 17:53:00,
2013-01-27 11:58:00,51.8,51.3,29.81,SSE,149,11.5,11.5,98,0.00,BKN,,0.01,51.0,WeatherDisplay:10.37,2013-01-27 17:58:00,
2013-01-27 12:03:00,52.0,51.7,29.81,South,180,16.1,16.1,99,0.00,BKN,,0.01,39.0,WeatherDisplay:10.37,2013-01-27 18:03:00,
2013-01-27 12:08:00,52.1,51.8,29.81,South,180,6.9,6.9,99,0.00,BKN,,0.01,63.0,WeatherDisplay:10.37,2013-01-27 18:08:00,
2013-01-27 12:13:00,52.2,51.7,29.81,South,184,15.0,15.0,98,0.00,BKN,,0.01,69.0,WeatherDisplay:10.37,2013-01-27 18:13:00,
2013-01-27 12:18:00,52.4,51.9,29.80,SSE,166,11.5,11.5,98,0.00,BKN,,0.01,62.0,WeatherDisplay:10.37,2013-01-27 18:18:00,
2013-01-27 12:23:00,52.5,52.0,29.80,South,177,12.7,12.7,98,0.00,BKN,,0.01,91.0,WeatherDisplay:10.37,2013-01-27 18:23:00,
2013-01-27 12:28:00,52.7,52.2,29.79,South,182,17.0,17.0,98,0.00,BKN,,0.01,83.0,WeatherDisplay:10.37,2013-01-27 18:28:00,
2013-01-27 12:33:00,52.8,52.3,29.79,SSE,153,17.3,17.3,98,0.00,BKN,,0.01,77.0,WeatherDisplay:10.37,2013-01-27 18:33:00,
2013-01-27 12:38:00,53.0,52.5,29.79,South,182,11.5,11.5,98,0.00,BKN,,0.01,58.0,WeatherDisplay:10.37,2013-01-27 18:38:00,
2013-01-27 12:43:00,53.2,52.7,29.78,South,190,9.0,9.0,98,0.00,BKN,,0.01,58.0,WeatherDisplay:10.37,2013-01-27 18:43:00,
2013-01-27 12:48:00,53.4,52.8,29.78,South,181,11.5,11.5,98,0.00,BKN,,0.01,111.0,WeatherDisplay:10.37,2013-01-27 18:48:00,
2013-01-27 12:53:00,53.7,53.1,29.78,SSE,154,14.0,14.0,98,0.00,BKN,,0.01,109.0,WeatherDisplay:10.37,2013-01-27 18:53:00,
2013-01-27 12:58:00,54.1,53.5,29.77,SE,136,15.0,15.0,98,0.00,BKN,,0.01,134.0,WeatherDisplay:10.37,2013-01-27 18:58:00,
2013-01-27 13:03:00,54.4,53.6,29.77,SSE,165,17.0,17.0,97,0.00,BKN,,0.01,128.0,WeatherDisplay:10.37,2013-01-27 19:03:00,
2013-01-27 13:08:00,54.8,54.0,29.76,ESE,117,12.7,12.7,97,0.00,BKN,,0.01,211.0,WeatherDisplay:10.37,2013-01-27 19:08:00,
2013-01-27 13:13:00,55.2,54.1,29.76,SE,144,16.1,16.1,96,0.00,SCT,,0.01,272.0,WeatherDisplay:10.37,2013-01-27 19:13:00,
2013-01-27 13:18:00,55.5,54.1,29.76,South,184,11.5,11.5,95,0.00,BKN,,0.01,195.0,WeatherDisplay:10.37,2013-01-27 19:18:00,
2013-01-27 13:23:00,55.8,54.4,29.75,South,186,19.0,19.0,95,0.00,BKN,,0.01,216.0,WeatherDisplay:10.37,2013-01-27 19:23:00,
2013-01-27 13:28:00,56.3,54.6,29.75,South,171,15.0,15.0,94,0.00,SCT,,0.01,350.0,WeatherDisplay:10.37,2013-01-27 19:28:00,
2013-01-27 13:33:00,57.1,55.4,29.74,South,180,13.8,13.8,94,0.00,SCT,,0.01,288.0,WeatherDisplay:10.37,2013-01-27 19:33:00,
2013-01-27 13:38:00,57.6,55.3,29.74,South,186,17.3,17.3,92,0.00,SCT,,0.01,264.0,WeatherDisplay:10.37,2013-01-27 19:38:00,
2013-01-27 13:43:00,58.1,55.5,29.74,South,188,13.8,13.8,91,0.00,BKN,,0.01,211.0,WeatherDisplay:10.37,2013-01-27 19:43:00,
2013-01-27 13:48:00,58.5,55.6,29.74,SE,130,11.5,11.5,90,0.00,SCT,,0.01,253.0,WeatherDisplay:10.37,2013-01-27 19:48:00,
2013-01-27 13:53:00,59.0,56.1,29.74,South,188,11.5,11.5,90,0.00,SCT,,0.01,227.0,WeatherDisplay:10.37,2013-01-27 19:53:00,
2013-01-27 13:58:00,59.5,56.3,29.73,SSE,148,17.3,17.3,89,0.00,BKN,,0.01,218.0,WeatherDisplay:10.37,2013-01-27 19:58:00,
2013-01-27 14:03:00,60.0,56.4,29.74,South,180,16.0,16.0,88,0.00,BKN,,0.01,216.0,WeatherDisplay:10.37,2013-01-27 20:03:00,
2013-01-27 14:08:00,60.5,56.6,29.74,SSW,198,12.7,12.7,87,0.00,BKN,,0.01,202.0,WeatherDisplay:10.37,2013-01-27 20:08:00,
2013-01-27 14:13:00,61.2,57.0,29.73,South,177,10.4,10.4,86,0.00,CLR,,0.01,673.0,WeatherDisplay:10.37,2013-01-27 20:13:00,
2013-01-27 14:18:00,62.6,57.4,29.73,South,182,11.5,11.5,83,0.00,CLR,,0.01,489.0,WeatherDisplay:10.37,2013-01-27 20:18:00,
2013-01-27 14:23:00,64.1,57.8,29.73,SSE,164,12.7,12.7,80,0.00,CLR,,0.01,459.0,WeatherDisplay:10.37,2013-01-27 20:23:00,
2013-01-27 14:28:00,64.9,57.2,29.73,South,172,10.4,10.4,76,0.00,CLR,,0.01,462.0,WeatherDisplay:10.37,2013-01-27 20:28:00,
2013-01-27 14:33:00,65.5,56.6,29.73,South,178,19.6,19.6,73,0.00,CLR,,0.01,420.0,WeatherDisplay:10.37,2013-01-27 20:33:00,
2013-01-27 14:38:00,65.6,56.3,29.72,South,188,17.3,17.3,72,0.00,SCT,,0.01,111.0,WeatherDisplay:10.37,2013-01-27 20:38:00,
2013-01-27 14:43:00,65.7,56.8,29.73,South,188,18.4,18.4,73,0.00,CLR,,0.01,427.0,WeatherDisplay:10.37,2013-01-27 20:43:00,
2013-01-27 14:48:00,66.2,56.9,29.72,South,178,15.0,15.0,72,0.00,CLR,,0.01,388.0,WeatherDisplay:10.37,2013-01-27 20:48:00,
2013-01-27 14:53:00,66.7,56.2,29.72,SW,219,16.1,16.1,69,0.00,CLR,,0.01,360.0,WeatherDisplay:10.37,2013-01-27 20:53:00,
2013-01-27 14:58:00,67.0,56.5,29.73,SSW,198,24.2,24.2,69,0.00,FEW,,0.01,311.0,WeatherDisplay:10.37,2013-01-27 20:58:00,
2013-01-27 15:03:00,67.3,56.4,29.73,South,174,21.9,21.9,68,0.00,CLR,,0.01,376.0,WeatherDisplay:10.37,2013-01-27 21:03:00,
2013-01-27 15:08:00,67.4,56.1,29.73,SSW,209,19.6,19.6,67,0.00,CLR,,0.01,362.0,WeatherDisplay:10.37,2013-01-27 21:08:00,
2013-01-27 15:13:00,67.6,56.2,29.73,SSW,194,17.3,17.3,67,0.00,CLR,,0.01,355.0,WeatherDisplay:10.37,2013-01-27 21:13:00,
2013-01-27 15:18:00,67.8,56.0,29.72,SSW,194,18.4,18.4,66,0.00,CLR,,0.01,334.0,WeatherDisplay:10.37,2013-01-27 21:18:00,
2013-01-27 15:23:00,68.0,56.2,29.73,SSW,208,17.3,17.3,66,0.00,CLR,,0.01,297.0,WeatherDisplay:10.37,2013-01-27 21:23:00,
2013-01-27 15:28:00,67.9,56.1,29.73,South,182,16.0,16.0,66,0.00,CLR,,0.01,299.0,WeatherDisplay:10.37,2013-01-27 21:28:00,
2013-01-27 15:33:00,67.8,56.0,29.73,WSW,242,11.5,11.5,66,0.00,BKN,,0.01,109.0,WeatherDisplay:10.37,2013-01-27 21:33:00,
2013-01-27 15:38:00,67.6,55.8,29.73,South,179,17.3,17.3,66,0.00,BKN,,0.01,77.0,WeatherDisplay:10.37,2013-01-27 21:38:00,
2013-01-27 15:43:00,67.5,55.7,29.73,SE,138,20.7,20.7,66,0.00,SCT,,0.01,162.0,WeatherDisplay:10.37,2013-01-27 21:43:00,
2013-01-27 15:48:00,67.6,55.8,29.72,SSE,157,15.0,15.0,66,0.00,BKN,,0.01,141.0,WeatherDisplay:10.37,2013-01-27 21:48:00,
2013-01-27 15:53:00,67.7,55.5,29.72,South,191,19.6,19.6,65,0.00,SCT,,0.01,137.0,WeatherDisplay:10.37,2013-01-27 21:53:00,
2013-01-27 15:58:00,67.8,55.6,29.72,SSW,194,19.6,19.6,65,0.00,SCT,,0.01,181.0,WeatherDisplay:10.37,2013-01-27 21:58:00,
2013-01-27 16:03:00,67.6,55.8,29.72,SE,131,13.8,13.8,66,0.00,SCT,,0.01,160.0,WeatherDisplay:10.37,2013-01-27 22:03:00,
2013-01-27 16:08:00,67.4,55.6,29.73,South,186,15.0,15.0,66,0.00,SCT,,0.01,127.0,WeatherDisplay:10.37,2013-01-27 22:08:00,
2013-01-27 16:13:00,67.3,56.0,29.73,SSE,163,20.7,20.7,67,0.00,SCT,,0.01,132.0,WeatherDisplay:10.37,2013-01-27 22:13:00,
2013-01-27 16:18:00,67.2,55.9,29.73,SSE,152,18.4,18.4,67,0.00,BKN,,0.01,62.0,WeatherDisplay:10.37,2013-01-27 22:18:00,
2013-01-27 16:23:00,67.0,55.7,29.73,SSE,163,16.1,16.1,67,0.00,BKN,,0.01,58.0,WeatherDisplay:10.37,2013-01-27 22:23:00,
2013-01-27 16:28:00,66.9,55.6,29.73,SSE,159,10.4,10.4,67,0.00,BKN,,0.01,56.0,WeatherDisplay:10.37,2013-01-27 22:28:00,
2013-01-27 16:33:00,66.7,55.4,29.73,SSE,151,11.5,11.5,67,0.00,BKN,,0.01,49.0,WeatherDisplay:10.37,2013-01-27 22:33:00,
2013-01-27 16:38:00,66.6,55.3,29.73,SSE,162,11.5,11.5,67,0.00,BKN,,0.01,47.0,WeatherDisplay:10.37,2013-01-27 22:38:00,
2013-01-27 16:43:00,66.5,55.6,29.73,ESE,117,11.5,11.5,68,0.00,BKN,,0.01,44.0,WeatherDisplay:10.37,2013-01-27 22:43:00,
2013-01-27 16:48:00,66.4,55.5,29.73,South,171,13.8,13.8,68,0.00,BKN,,0.01,40.0,WeatherDisplay:10.37,2013-01-27 22:48:00,
2013-01-27 16:53:00,66.3,55.4,29.73,SSE,153,17.3,17.3,68,0.00,BKN,,0.01,39.0,WeatherDisplay:10.37,2013-01-27 22:53:00,
2013-01-27 16:58:00,66.2,55.7,29.73,South,169,11.5,11.5,69,0.00,BKN,,0.01,37.0,WeatherDisplay:10.37,2013-01-27 22:58:00,
2013-01-27 17:03:00,66.0,55.5,29.73,SSE,165,11.0,11.0,69,0.00,BKN,,0.01,33.0,WeatherDisplay:10.37,2013-01-27 23:03:00,
2013-01-27 17:08:00,65.8,55.3,29.73,SSW,193,12.7,12.7,69,0.00,BKN,,0.01,30.0,WeatherDisplay:10.37,2013-01-27 23:08:00,
2013-01-27 17:13:00,65.7,55.2,29.73,SSE,164,12.0,12.0,69,0.00,BKN,,0.01,26.0,WeatherDisplay:10.37,2013-01-27 23:13:00,
2013-01-27 17:18:00,65.5,55.1,29.73,SE,142,5.8,5.8,69,0.00,BKN,,0.01,23.0,WeatherDisplay:10.37,2013-01-27 23:18:00,
2013-01-27 17:23:00,65.3,55.3,29.73,SW,217,19.6,19.6,70,0.00,BKN,,0.01,19.0,WeatherDisplay:10.37,2013-01-27 23:23:00,
2013-01-27 17:28:00,65.1,55.5,29.73,SSE,161,18.4,18.4,71,0.00,BKN,,0.01,16.0,WeatherDisplay:10.37,2013-01-27 23:28:00,
2013-01-27 17:33:00,64.9,55.3,29.73,South,174,17.3,17.3,71,0.00,SCT,,0.01,12.0,WeatherDisplay:10.37,2013-01-27 23:33:00,
2013-01-27 17:38:00,64.7,55.1,29.73,SE,126,19.6,19.6,71,0.00,CLR,,0.01,9.0,WeatherDisplay:10.37,2013-01-27 23:38:00,
2013-01-27 17:43:00,64.4,55.2,29.73,South,178,8.1,8.1,72,0.00,OVC,,0.01,7.0,WeatherDisplay:10.37,2013-01-27 23:43:00,
2013-01-27 17:48:00,64.0,55.2,29.73,South,181,9.2,9.2,73,0.00,CLR,,0.01,5.0,WeatherDisplay:10.37,2013-01-27 23:48:00,
2013-01-27 17:53:00,63.8,55.0,29.73,South,173,15.0,15.0,73,0.00,CLR,,0.01,0.0,WeatherDisplay:10.37,2013-01-27 23:53:00,
2013-01-27 17:58:00,63.6,55.2,29.73,SSE,157,8.0,8.0,74,0.00,CLR,,0.01,0.0,WeatherDisplay:10.37,2013-01-27 23:58:00,
2013-01-27 18:03:00,63.3,54.9,29.74,SSE,147,15.0,15.0,74,0.00,CLR,,0.01,0.0,WeatherDisplay:10.37,2013-01-28 00:03:00,
2013-01-27 18:08:00,63.1,55.0,29.74,SSE,153,11.5,11.5,75,0.00,CLR,,0.01,0.0,WeatherDisplay:10.37,2013-01-28 00:08:00,
2013-01-27 18:13:00,62.9,54.9,29.74,SSE,165,13.8,13.8,75,0.00,CLR,,0.01,0.0,WeatherDisplay:10.37,2013-01-28 00:13:00,
2013-01-27 18:18:00,62.6,54.6,29.74,South,182,5.8,5.8,75,0.00,CLR,,0.01,0.0,WeatherDisplay:10.37,2013-01-28 00:18:00,
2013-01-27 18:23:00,62.4,54.7,29.74,SSE,160,11.5,11.5,76,0.00,CLR,,0.01,0.0,WeatherDisplay:10.37,2013-01-28 00:23:00,
2013-01-27 18:28:00,62.2,54.9,29.74,SSE,158,7.0,7.0,77,0.00,CLR,,0.01,0.0,WeatherDisplay:10.37,2013-01-28 00:28:00,
2013-01-27 18:33:00,62.0,54.7,29.74,South,177,8.1,8.1,77,0.00,CLR,,0.01,0.0,WeatherDisplay:10.37,2013-01-28 00:33:00,
2013-01-27 18:38:00,61.8,54.5,29.74,SE,134,9.2,9.2,77,0.00,CLR,,0.01,0.0,WeatherDisplay:10.37,2013-01-28 00:38:00,
2013-01-27 18:43:00,61.6,54.7,29.74,SE,125,10.4,10.4,78,0.00,CLR,,0.01,0.0,WeatherDisplay:10.37,2013-01-28 00:43:00,
2013-01-27 18:48:00,61.6,54.7,29.75,SSE,165,11.5,11.5,78,0.00,CLR,,0.01,0.0,WeatherDisplay:10.37,2013-01-28 00:48:00,
2013-01-27 18:53:00,61.5,54.6,29.75,SE,138,11.5,11.5,78,0.00,CLR,,0.01,0.0,WeatherDisplay:10.37,2013-01-28 00:53:00,
2013-01-27 18:58:00,61.4,54.5,29.75,SSE,162,13.0,13.0,78,0.00,CLR,,0.01,0.0,WeatherDisplay:10.37,2013-01-28 00:58:00,
2013-01-27 19:03:00,61.3,54.4,29.75,SSE,151,13.0,13.0,78,0.00,CLR,,0.01,0.0,WeatherDisplay:10.37,2013-01-28 01:03:00,
2013-01-27 19:08:00,61.3,54.7,29.75,SSE,157,9.2,9.2,79,0.00,CLR,,0.01,0.0,WeatherDisplay:10.37,2013-01-28 01:08:00,
2013-01-27 19:13:00,61.1,54.5,29.75,SSE,158,11.5,11.5,79,0.00,CLR,,0.01,0.0,WeatherDisplay:10.37,2013-01-28 01:13:00,
2013-01-27 19:18:00,61.0,54.4,29.75,South,184,15.0,15.0,79,0.00,CLR,,0.01,0.0,WeatherDisplay:10.37,2013-01-28 01:18:00,
2013-01-27 19:23:00,60.9,54.3,29.76,SSE,161,6.9,6.9,79,0.00,CLR,,0.01,0.0,WeatherDisplay:10.37,2013-01-28 01:23:00,
2013-01-27 19:28:00,60.7,54.5,29.76,SSE,159,7.0,7.0,80,0.00,CLR,,0.01,0.0,WeatherDisplay:10.37,2013-01-28 01:28:00,
2013-01-27 19:33:00,60.5,54.3,29.76,South,178,6.0,6.0,80,0.00,CLR,,0.01,0.0,WeatherDisplay:10.37,2013-01-28 01:33:00,
2013-01-27 19:38:00,60.4,54.5,29.76,South,184,12.0,12.0,81,0.00,CLR,,0.01,0.0,WeatherDisplay:10.37,2013-01-28 01:38:00,
2013-01-27 19:43:00,60.4,54.5,29.76,SE,142,5.0,5.0,81,0.00,CLR,,0.01,0.0,WeatherDisplay:10.37,2013-01-28 01:43:00,
2013-01-27 19:48:00,60.3,54.8,29.76,South,184,10.4,10.4,82,0.00,CLR,,0.01,0.0,WeatherDisplay:10.37,2013-01-28 01:48:00,
2013-01-27 19:53:00,60.2,54.7,29.76,SSE,165,5.8,5.8,82,0.00,CLR,,0.01,0.0,WeatherDisplay:10.37,2013-01-28 01:53:00,
2013-01-27 19:58:00,60.1,54.6,29.76,SE,146,10.4,10.4,82,0.00,CLR,,0.01,0.0,WeatherDisplay:10.37,2013-01-28 01:58:00,
2013-01-27 20:03:00,59.9,54.7,29.77,South,173,6.9,6.9,83,0.00,CLR,,0.01,0.0,WeatherDisplay:10.37,2013-01-28 02:03:00,
2013-01-27 20:08:00,59.8,54.6,29.77,SSE,157,6.9,6.9,83,0.00,CLR,,0.01,0.0,WeatherDisplay:10.37,2013-01-28 02:08:00,
2013-01-27 20:13:00,59.6,54.4,29.77,SE,140,4.6,4.6,83,0.00,CLR,,0.01,0.0,WeatherDisplay:10.37,2013-01-28 02:13:00,
2013-01-27 20:18:00,59.5,54.7,29.77,South,182,6.9,6.9,84,0.00,CLR,,0.01,0.0,WeatherDisplay:10.37,2013-01-28 02:18:00,
2013-01-27 20:23:00,59.4,54.9,29.77,South,170,10.4,10.4,85,0.00,CLR,,0.01,0.0,WeatherDisplay:10.37,2013-01-28 02:23:00,
2013-01-27 20:28:00,59.3,54.8,29.78,SSW,195,3.5,3.5,85,0.00,CLR,,0.01,0.0,WeatherDisplay:10.37,2013-01-28 02:28:00,
2013-01-27 20:33:00,59.1,54.3,29.79,West,259,6.9,6.9,84,0.00,CLR,,0.01,0.0,WeatherDisplay:10.37,2013-01-28 02:33:00,
2013-01-27 20:38:00,58.8,54.3,29.79,WSW,244,4.6,4.6,85,0.00,CLR,,0.01,0.0,WeatherDisplay:10.37,2013-01-28 02:38:00,
2013-01-27 20:43:00,58.5,54.0,29.79,SSW,202,3.5,3.5,85,0.00,CLR,,0.01,0.0,WeatherDisplay:10.37,2013-01-28 02:43:00,
2013-01-27 20:48:00,58.4,54.2,29.79,South,183,4.6,4.6,86,0.00,CLR,,0.01,0.0,WeatherDisplay:10.37,2013-01-28 02:48:00,
2013-01-27 20:53:00,58.2,54.3,29.79,SSW,213,10.4,10.4,87,0.00,CLR,,0.01,0.0,WeatherDisplay:10.37,2013-01-28 02:53:00,
2013-01-27 20:58:00,58.3,54.4,29.79,SW,225,4.0,4.0,87,0.00,CLR,,0.01,0.0,WeatherDisplay:10.37,2013-01-28 02:58:00,
2013-01-27 21:03:00,58.2,54.3,29.79,South,186,3.5,3.5,87,0.00,CLR,,0.01,0.0,WeatherDisplay:10.37,2013-01-28 03:03:00,
2013-01-27 21:08:00,58.0,54.2,29.79,SW,219,3.5,3.5,87,0.00,CLR,,0.01,0.0,WeatherDisplay:10.37,2013-01-28 03:08:00,
2013-01-27 21:13:00,57.8,54.0,29.79,SSW,196,3.5,3.5,87,0.00,CLR,,0.01,0.0,WeatherDisplay:10.37,2013-01-28 03:13:00,
2013-01-27 21:18:00,57.7,54.2,29.79,SSW,213,3.5,3.5,88,0.00,CLR,,0.01,0.0,WeatherDisplay:10.37,2013-01-28 03:18:00,
2013-01-27 21:23:00,57.5,53.7,29.80,WSW,258,2.3,2.3,87,0.00,CLR,,0.01,0.0,WeatherDisplay:10.37,2013-01-28 03:23:00,
2013-01-27 21:28:00,57.3,53.8,29.79,SW,228,3.5,3.5,88,0.00,CLR,,0.01,0.0,WeatherDisplay:10.37,2013-01-28 03:28:00,
2013-01-27 21:30:00,57.1,53.6,29.79,SW,227,2.0,4.0,88,0.00,RA,,0.01,0.0,WeatherDisplay:10.37,2013-01-28 03:30:00,
2013-01-27 21:33:00,57.3,53.8,29.79,SW,228,3.5,3.5,88,0.00,CLR,,0.01,0.0,WeatherDisplay:10.37,2013-01-28 03:33:00,
2013-01-27 21:41:00,56.7,53.5,29.79,SSE,165,5.0,5.0,89,0.00,CLR,,0.01,0.0,WeatherDisplay:10.37,2013-01-28 03:41:00,
2013-01-27 21:46:00,56.6,53.7,29.79,SSE,161,4.6,4.6,90,0.00,CLR,,0.01,0.0,WeatherDisplay:10.37,2013-01-28 03:46:00,
2013-01-27 21:51:00,56.6,53.7,29.79,South,169,3.5,3.5,90,0.00,CLR,,0.01,0.0,WeatherDisplay:10.37,2013-01-28 03:51:00,
2013-01-27 21:56:00,56.5,53.6,29.80,SW,225,3.5,3.5,90,0.00,CLR,,0.01,0.0,WeatherDisplay:10.37,2013-01-28 03:56:00,
2013-01-27 22:01:00,56.3,53.4,29.80,SW,233,2.3,2.3,90,0.00,CLR,,0.01,0.0,WeatherDisplay:10.37,2013-01-28 04:01:00,
2013-01-27 22:06:00,56.1,53.2,29.80,SW,223,1.1,1.1,90,0.00,CLR,,0.01,0.0,WeatherDisplay:10.37,2013-01-28 04:06:00,
2013-01-27 22:11:00,55.9,53.3,29.80,South,182,3.5,3.5,91,0.00,CLR,,0.01,0.0,WeatherDisplay:10.37,2013-01-28 04:11:00,
2013-01-27 22:16:00,55.8,53.2,29.80,South,182,2.3,2.3,91,0.00,CLR,,0.01,0.0,WeatherDisplay:10.37,2013-01-28 04:16:00,
2013-01-27 22:21:00,55.6,52.7,29.80,SSE,149,3.5,3.5,90,0.00,CLR,,0.01,0.0,WeatherDisplay:10.37,2013-01-28 04:21:00,
2013-01-27 22:26:00,55.3,52.7,29.79,SSE,160,3.5,3.5,91,0.00,CLR,,0.01,0.0,WeatherDisplay:10.37,2013-01-28 04:26:00,
2013-01-27 22:31:00,55.0,52.4,29.80,SSE,160,1.1,1.1,91,0.00,CLR,,0.01,0.0,WeatherDisplay:10.37,2013-01-28 04:31:00,
2013-01-27 22:36:00,54.8,52.2,29.80,SSE,160,1.1,0.0,91,0.00,CLR,,0.01,0.0,WeatherDisplay:10.37,2013-01-28 04:36:00,
2013-01-27 22:41:00,54.5,52.2,29.80,SSE,160,0.0,0.0,92,0.00,CLR,,0.01,0.0,WeatherDisplay:10.37,2013-01-28 04:41:00,
2013-01-27 22:46:00,54.2,51.6,29.80,SSE,160,0.0,0.0,91,0.00,CLR,,0.01,0.0,WeatherDisplay:10.37,2013-01-28 04:46:00,
2013-01-27 22:51:00,53.7,51.1,29.80,SSE,160,0.0,0.0,91,0.00,CLR,,0.01,0.0,WeatherDisplay:10.37,2013-01-28 04:51:00,
2013-01-27 22:56:00,53.3,50.7,29.80,SSE,160,0.0,0.0,91,0.00,CLR,,0.01,0.0,WeatherDisplay:10.37,2013-01-28 04:56:00,
2013-01-27 23:00:00,52.9,50.3,29.80,SSE,160,0.0,0.0,91,0.00,CLR,,0.01,0.0,WeatherDisplay:10.37,2013-01-28 05:00:00,
2013-01-27 23:02:00,52.7,50.1,29.80,SSE,160,0.0,0.0,91,0.00,CLR,,0.01,0.0,WeatherDisplay:10.37,2013-01-28 05:02:00,
2013-01-27 23:04:00,52.6,50.0,29.80,SSE,160,0.0,0.0,91,0.00,CLR,,0.01,0.0,WeatherDisplay:10.37,2013-01-28 05:04:00,
2013-01-27 23:09:00,52.1,49.6,29.80,SSE,160,0.0,0.0,91,0.00,CLR,,0.01,0.0,WeatherDisplay:10.37,2013-01-28 05:09:00,
2013-01-27 23:14:00,51.8,49.5,29.80,SSE,160,0.0,0.0,92,0.00,CLR,,0.01,0.0,WeatherDisplay:10.37,2013-01-28 05:14:00,
2013-01-27 23:19:00,51.4,49.2,29.80,SSE,160,0.0,0.0,92,0.00,CLR,,0.01,0.0,WeatherDisplay:10.37,2013-01-28 05:19:00,
2013-01-27 23:24:00,51.2,49.0,29.80,SSE,160,1.1,0.0,92,0.00,CLR,,0.01,0.0,WeatherDisplay:10.37,2013-01-28 05:24:00,
2013-01-27 23:29:00,50.9,48.7,29.80,SE,144,1.1,1.1,92,0.00,CLR,,0.01,0.0,WeatherDisplay:10.37,2013-01-28 05:29:00,
2013-01-27 23:34:00,50.6,48.7,29.80,SE,144,2.3,2.3,93,0.00,CLR,,0.01,0.0,WeatherDisplay:10.37,2013-01-28 05:34:00,
2013-01-27 23:39:00,50.4,48.5,29.79,SSE,154,2.3,2.3,93,0.00,CLR,,0.01,0.0,WeatherDisplay:10.37,2013-01-28 05:39:00,
2013-01-27 23:44:00,50.3,48.6,29.80,SSE,154,1.1,1.1,94,0.00,CLR,,0.01,0.0,WeatherDisplay:10.37,2013-01-28 05:44:00,
2013-01-27 23:49:00,50.5,49.1,29.80,SSE,154,2.3,2.3,95,0.00,CLR,,0.01,0.0,WeatherDisplay:10.37,2013-01-28 05:49:00,
2013-01-27 23:54:00,50.5,49.1,29.80,SSE,154,0.0,0.0,95,0.00,CLR,,0.01,0.0,WeatherDisplay:10.37,2013-01-28 05:54:00,
2013-01-27 23:59:00,50.5,49.1,29.80,SSE,154,0.0,0.0,95,0.00,CLR,,0.01,0.0,WeatherDisplay:10.37,2013-01-28 05:59:00,